| time (UTC) | temp F | wind direction | speed MPH | gust MPH | rain 1hr in | rain 24hr in | rain mn in | humidity % | barometer mb |
| 20260506090045 | 64 | 259 | 4.0 | 12.0 | 0.00 | 0.00 | 0.00 | 47 | 1012.5 |
| 20260506084530 | 63 | 239 | 2.0 | 12.0 | 0.00 | 0.00 | 0.00 | 51 | 1012.3 |
| 20260506083032 | 63 | 277 | 6.0 | 14.0 | 0.00 | 0.00 | 0.00 | 48 | 1012.1 |
| 20260506081508 | 62 | 233 | 6.0 | 12.0 | 0.00 | 0.00 | 0.00 | 48 | 1011.9 |
| 20260506073031 | 60 | 188 | 3.0 | 11.0 | 0.00 | 0.00 | 0.00 | 49 | 1011.5 |
| 20260506071522 | 60 | 82 | 3.0 | 11.0 | 0.00 | 0.00 | 0.00 | 47 | 1011.7 |
| 20260506061533 | 63 | 52 | 1.0 | 5.0 | 0.00 | 0.00 | 0.00 | 46 | 1011.3 |
| 20260506044613 | 55 | 71 | 1.0 | 3.0 | 0.00 | 0.00 | 0.00 | 53 | 1011.0 |
| 20260506043056 | 49 | 358 | 0.0 | 0.0 | 0.00 | 0.00 | 0.00 | 63 | 1011.0 |
| 20260506041546 | 47 | 358 | 0.0 | 0.0 | 0.00 | 0.00 | 0.00 | 62 | 1011.0 |
| 20260506040044 | 47 | 358 | 0.0 | 0.0 | 0.00 | 0.00 | 0.00 | 61 | 1011.1 |
| 20260506034522 | 47 | 358 | 0.0 | 0.0 | 0.00 | 0.00 | 0.00 | 60 | 1010.9 |
| 20260506033013 | 48 | 358 | 0.0 | 0.0 | 0.00 | 0.00 | 0.00 | 60 | 1010.8 |
| 20260506031602 | 47 | 358 | 0.0 | 0.0 | 0.00 | 0.00 | 0.00 | 61 | 1010.8 |
| 20260506030052 | 47 | 358 | 0.0 | 0.0 | 0.00 | 0.00 | 0.00 | 61 | 1010.7 |
| 20260506024546 | 48 | 358 | 0.0 | 0.0 | 0.00 | 0.00 | 0.00 | 60 | 1010.6 |
| 20260506023032 | 48 | 358 | 0.0 | 0.0 | 0.00 | 0.00 | 0.00 | 57 | 1010.6 |
| 20260506021528 | 49 | 276 | 0.0 | 2.0 | 0.00 | 0.00 | 0.00 | 56 | 1010.7 |
| 20260506020001 | 49 | 310 | 0.0 | 1.0 | 0.00 | 0.00 | 0.00 | 56 | 1010.7 |
| 20260506014548 | 49 | 360 | 0.0 | 0.0 | 0.00 | 0.00 | 0.00 | 55 | 1010.8 |
| 20260506013033 | 49 | 360 | 0.0 | 0.0 | 0.00 | 0.00 | 0.00 | 56 | 1010.9 |
| 20260506011525 | 50 | 360 | 0.0 | 1.0 | 0.00 | 0.00 | 0.00 | 53 | 1010.8 |
| 20260506010010 | 51 | 249 | 0.0 | 2.0 | 0.00 | 0.00 | 0.00 | 50 | 1010.7 |
| 20260506004537 | 50 | 1 | 0.0 | 1.0 | 0.00 | 0.00 | 0.00 | 53 | 1010.5 |
| 20260506003025 | 51 | 4 | 0.0 | 0.0 | 0.00 | 0.00 | 0.00 | 52 | 1010.6 |
| 20260506001514 | 51 | 1 | 0.0 | 1.0 | 0.00 | 0.00 | 0.00 | 51 | 1010.5 |
| 20260506000110 | 51 | 28 | 0.0 | 2.0 | 0.00 | 0.00 | 0.00 | 50 | 1010.6 |
| 20260505234549 | 51 | 273 | 0.0 | 2.0 | 0.00 | 0.00 | 0.00 | 52 | 1010.7 |
| 20260505233023 | 51 | 349 | 0.0 | 0.0 | 0.00 | 0.00 | 0.00 | 51 | 1010.8 |
| 20260505231520 | 51 | 349 | 0.0 | 1.0 | 0.00 | 0.00 | 0.00 | 51 | 1010.8 |
| 20260505230059 | 52 | 349 | 0.0 | 1.0 | 0.00 | 0.00 | 0.00 | 50 | 1011.0 |
| 20260505224545 | 53 | 349 | 0.0 | 1.0 | 0.00 | 0.00 | 0.00 | 48 | 1011.1 |
| 20260505223033 | 54 | 349 | 0.0 | 0.0 | 0.00 | 0.00 | 0.00 | 46 | 1011.2 |
| 20260505221522 | 54 | 349 | 0.0 | 0.0 | 0.00 | 0.00 | 0.00 | 45 | 1011.2 |
| 20260505220007 | 54 | 296 | 1.0 | 2.0 | 0.00 | 0.00 | 0.00 | 44 | 1011.2 |
| 20260505214603 | 54 | 296 | 1.0 | 3.0 | 0.00 | 0.00 | 0.00 | 45 | 1011.2 |
| 20260505213038 | 55 | 279 | 1.0 | 3.0 | 0.00 | 0.00 | 0.00 | 45 | 1011.2 |
| 20260505211535 | 54 | 310 | 0.0 | 2.0 | 0.00 | 0.00 | 0.00 | 45 | 1011.3 |
| 20260505210011 | 54 | 269 | 1.0 | 5.0 | 0.00 | 0.00 | 0.00 | 45 | 1011.2 |
| 20260505204600 | 55 | 346 | 0.0 | 1.0 | 0.00 | 0.00 | 0.00 | 41 | 1011.2 |
| 20260505203108 | 56 | 346 | 0.0 | 2.0 | 0.00 | 0.00 | 0.00 | 40 | 1011.0 |
| 20260505201534 | 57 | 347 | 0.0 | 2.0 | 0.00 | 0.00 | 0.00 | 38 | 1011.1 |
| 20260505200022 | 58 | 282 | 0.0 | 2.0 | 0.00 | 0.00 | 0.00 | 34 | 1011.0 |
| 20260505194507 | 60 | 331 | 0.0 | 1.0 | 0.00 | 0.00 | 0.00 | 32 | 1011.1 |
| 20260505193053 | 61 | 338 | 0.0 | 0.0 | 0.00 | 0.00 | 0.00 | 29 | 1010.9 |
| 20260505191544 | 61 | 338 | 0.0 | 0.0 | 0.00 | 0.00 | 0.00 | 29 | 1011.0 |
| 20260505190025 | 61 | 338 | 0.0 | 1.0 | 0.00 | 0.00 | 0.00 | 30 | 1011.0 |
| 20260505184522 | 63 | 290 | 0.0 | 1.0 | 0.00 | 0.00 | 0.00 | 28 | 1011.0 |
| 20260505183001 | 63 | 297 | 0.0 | 2.0 | 0.00 | 0.00 | 0.00 | 27 | 1011.1 |
| 20260505181553 | 63 | 291 | 0.0 | 2.0 | 0.00 | 0.00 | 0.00 | 28 | 1011.0 |
| 20260505180044 | 64 | 291 | 0.0 | 2.0 | 0.00 | 0.00 | 0.00 | 27 | 1010.9 |
| 20260505174525 | 65 | 275 | 0.0 | 2.0 | 0.00 | 0.00 | 0.00 | 26 | 1010.9 |
| 20260505173006 | 67 | 275 | 1.0 | 4.0 | 0.00 | 0.00 | 0.00 | 22 | 1010.8 |
| 20260505171558 | 67 | 262 | 2.0 | 6.0 | 0.00 | 0.00 | 0.00 | 22 | 1010.9 |
| 20260505170047 | 69 | 302 | 0.0 | 6.0 | 0.00 | 0.00 | 0.00 | 23 | 1011.0 |
| 20260505164537 | 70 | 228 | 1.0 | 4.0 | 0.00 | 0.00 | 0.00 | 21 | 1010.9 |
| 20260505163025 | 71 | 297 | 2.0 | 10.0 | 0.00 | 0.00 | 0.00 | 20 | 1011.1 |
| 20260505161506 | 72 | 236 | 2.0 | 9.0 | 0.00 | 0.00 | 0.00 | 18 | 1011.1 |
| 20260505153048 | 74 | 242 | 2.0 | 10.0 | 0.00 | 0.00 | 0.00 | 18 | 1011.4 |
| 20260505151527 | 74 | 289 | 2.0 | 8.0 | 0.00 | 0.00 | 0.00 | 19 | 1011.6 |
| 20260505124514 | 75 | 255 | 4.0 | 10.0 | 0.00 | 0.00 | 0.00 | 21 | 1012.9 |
| 20260505123002 | 74 | 276 | 4.0 | 15.0 | 0.00 | 0.00 | 0.00 | 23 | 1013.2 |
| 20260505121554 | 74 | 154 | 6.0 | 18.0 | 0.00 | 0.00 | 0.00 | 22 | 1013.6 |
| 20260505120042 | 74 | 252 | 4.0 | 10.0 | 0.00 | 0.00 | 0.00 | 23 | 1013.6 |
| 20260505114523 | 74 | 230 | 2.0 | 10.0 | 0.00 | 0.00 | 0.00 | 29 | 1013.9 |
| 20260505113019 | 73 | 278 | 2.0 | 9.0 | 0.00 | 0.00 | 0.00 | 23 | 1014.1 |
| 20260505111503 | 72 | 222 | 5.0 | 19.0 | 0.00 | 0.00 | 0.00 | 28 | 1014.1 |
| 20260505101521 | 71 | 309 | 4.0 | 12.0 | 0.00 | 0.00 | 0.00 | 24 | 1014.5 |
| 20260505100100 | 71 | 257 | 4.0 | 12.0 | 0.00 | 0.00 | 0.00 | 25 | 1014.9 |
| 20260505094557 | 71 | 151 | 3.0 | 10.0 | 0.00 | 0.00 | 0.00 | 26 | 1014.9 |
| 20260505093046 | 71 | 47 | 2.0 | 10.0 | 0.00 | 0.00 | 0.00 | 25 | 1015.0 |
| 20260505091525 | 70 | 218 | 3.0 | 10.0 | 0.00 | 0.00 | 0.00 | 26 | 1015.1 |